CAPE
54 76 59 9 0 0 0 0 0 0 0 0 0 0 0 0 0 0 0 0 0 0 26 0 0 0 0 0 104 7 72 111 172 203 224 95 10 0 2 3 1 1 5 0 0 0 0 0 0
21 74 0 2 0 0 0 0 0 0 0 0 0 0 0 0 0 0 0 0 0 0 13 0 0 0 0 0 99 54 20 1 0 0 0 0 0 1 7 5 9 2 6 1 0 0 0 0 0
0 0 1 5 0 0 8 0 0 0 0 0 0 0 0 0 0 0 0 0 0 0 0 0 45 0 0 0 1 0 4 0 0 0 0 0 0 0 0 0 0 6 2 3 0 0 0 0 0
0 0 0 0 1 2 4 0 0 0 0 0 0 0 0 0 0 0 0 0 0 0 0 0 31 0 0 56 70 0 0 0 0 0 0 0 0 0 0 0 0 0 0 7 0 0 0 0 0
0 0 0 0 0 0 3 0 0 0 0 0 0 0 0 0 0 0 0 0 0 0 5 0 0 0 0 0 0 0 0 0 0 0 0 0 0 0 0 0 0 0 0 0 0 0 0 0 0
0 0 0 0 0 0 0 0 0 0 0 0 0 0 0 0 0 0 0 0 0 0 0 12 9 0 0 0 0 0 0 0 0 0 0 0 0 0 0 0 0 0 0 0 0 0 0 0 0
0 0 0 0 0 0 1 0 0 0 0 0 0 0 0 1 1 0 0 0 0 0 1 8 5 0 0 0 0 0 0 0 0 0 0 0 0 0 0 0 0 0 0 0 0 0 0 0 0
0 0 0 0 0 0 0 0 0 0 0 0 0 0 0 0 0 0 0 0 0 0 0 0 0 0 0 0 0 0 0 0 0 0 0 0 0 0 0 0 0 0 0 0 0 0 0 0 0
0 0 0 0 0 0 0 0 0 0 0 0 0 0 0 0 0 0 0 0 0 0 0 0 0 0 0 0 0 0 0 0 0 0 0 0 0 0 0 0 0 0 0 0 0 0 0 0 0
0 0 0 0 0 0 0 0 0 0 0 0 0 0 0 0 0 0 0 0 0 0 0 0 0 0 0 0 0 0 0 0 0 0 0 0 0 0 0 0 0 0 0 0 0 0 0 0 0
0 0 0 0 0 0 0 0 0 0 0 0 0 0 1 1 0 0 0 0 0 0 0 0 0 0 0 0 0 0 0 0 0 0 0 0 0 0 0 0 0 0 0 0 0 0 0 0 0
1 0 0 0 0 0 0 0 0 0 0 0 0 0 0 1 0 0 0 0 0 0 0 0 0 0 0 0 0 0 0 0 0 0 0 0 0 0 0 0 0 0 0 0 0 0 0 0 0
0 0 0 0 0 0 0 0 0 0 0 0 0 0 0 0 0 0 0 0 0 0 0 0 0 0 0 0 0 0 0 0 0 0 0 0 0 0 0 0 0 0 0 0 0 0 0 0 0
5 0 0 0 0 0 0 0 0 0 0 0 0 0 0 0 0 0 0 0 0 0 0 0 0 0 0 0 0 0 0 0 0 0 0 0 0 0 0 0 0 0 0 0 0 0 0 0 0
0 0 0 0 0 0 0 0 0 0 0 0 0 0 0 0 0 0 0 0 0 0 0 0 0 0 0 0 0 0 0 0 0 0 0 0 0 0 0 0 0 0 0 0 1 4 1 7 14
2 0 0 0 0 0 0 0 0 0 0 0 0 0 0 8 1 0 0 0 0 0 0 0 0 0 0 0 0 0 0 0 0 0 0 0 0 0 0 0 0 0 2 5 9 16 25 34 24
8 0 0 0 0 0 0 0 0 0 0 0 0 0 0 12 26 25 8 0 6 0 0 0 0 0 0 0 0 0 0 0 0 0 0 0 0 0 0 0 0 0 1 7 2 4 2 0 0
1 0 2 0 0 0 0 0 0 0 0 0 0 0 0 0 40 6 0 0 0 0 0 0 0 0 0 0 0 0 0 0 0 0 0 0 0 0 0 0 0 0 0 0 0 0 0 0 0
0 1 0 0 0 0 0 0 0 0 0 0 2 0 3 0 0 0 0 0 0 0 0 0 0 0 0 0 0 0 0 0 0 0 0 0 0 0 0 0 0 0 0 0 0 0 0 0 1
1 6 1 0 0 0 0 0 0 0 0 0 0 3 22 0 0 0 0 0 0 0 0 0 0 0 0 0 0 0 0 0 0 0 0 0 0 0 0 0 0 0 0 0 0 0 0 1 1
9 3 1 0 0 0 0 0 0 0 0 0 0 0 1 0 0 0 0 0 0 0 0 0 0 0 0 0 0 0 0 0 0 0 0 0 0 0 0 0 0 0 0 0 0 0 0 0 0
5 0 4 1 0 1 0 0 0 0 0 0 0 0 0 0 0 0 0 0 0 0 0 0 0 0 0 0 0 0 0 0 0 0 0 0 0 0 0 0 0 0 0 0 0 0 0 0 0
12 1 1 3 2 1 0 0 0 0 0 0 0 0 0 0 0 0 0 0 0 0 0 0 0 0 0 0 0 0 0 0 0 0 0 0 0 0 0 0 0 0 0 0 0 0 0 0 0
0 0 1 0 0 0 0 0 0 0 0 0 0 0 0 0 0 0 0 0 0 0 0 0 0 0 0 0 0 0 0 0 0 0 0 0 0 0 0 0 0 0 0 0 0 0 0 0 0
7 10 0 0 0 0 0 0 0 0 0 0 0 0 0 0 0 0 0 0 0 0 0 0 0 0 0 0 0 0 0 0 0 0 0 0 0 0 0 0 0 0 0 0 0 0 0 0 0
9 16 0 0 0 0 0 0 0 0 0 0 0 0 0 0 0 0 0 0 0 0 0 0 0 0 0 0 0 0 0 0 0 0 0 0 0 0 0 0 0 0 0 0 0 0 0 0 0
0 1 0 0 0 0 0 0 0 0 0 0 0 0 0 0 0 0 0 0 0 0 0 0 0 0 0 0 0 0 0 0 0 0 0 0 0 0 0 0 0 0 0 0 0 0 0 0 0
0 0 0 0 0 0 0 0 0 0 0 0 0 0 0 0 0 0 0 0 0 0 0 0 0 0 0 0 0 0 0 0 0 0 0 0 0 0 0 0 0 0 0 0 0 0 0 0 0
0 0 0 0 0 0 0 0 0 0 0 0 0 0 0 0 0 0 0 0 0 0 0 0 0 0 0 0 0 0 0 0 0 0 0 0 0 0 0 0 0 0 0 0 0 0 0 0 0
0 0 0 0 0 0 0 0 0 0 0 0 0 0 0 0 0 0 0 0 0 0 0 0 0 0 0 0 0 0 0 0 0 0 0 0 0 0 0 0 0 0 0 0 0 0 0 0 0
CIN
-275 -289 -297 -276 -0 -0 -0 -0 -0 -0 -0 -0 -0 -0 -0 -0 -0 -0 -0 -0 -0 -0 -183 -0 -0 -0 -0 -0 -97 -179 -85 -58 -33 -13 -7 -35 -79 -0 -0 -0 -0 -0 -0 -0 -0 -0 -0 -0 -0
-235 -229 -0 -86 -0 -0 -0 -0 -0 -0 -0 -0 -0 -0 -0 -0 -0 -0 -0 -0 -0 -0 -186 -0 -0 -0 -0 -0 -87 -108 -122 -87 -0 -0 -0 -0 -0 -0 -0 -0 -0 -0 -0 -0 -0 -0 -0 -0 -0
-0 -0 -16 -94 -0 -0 -16 -0 -0 -0 -0 -0 -0 -0 -0 -0 -0 -0 -0 -0 -0 -0 -15 -0 -142 -0 -0 -0 -65 -82 -65 -0 -0 -0 -0 -0 -0 -0 -0 -0 -0 -0 -0 -0 -0 -0 -0 -0 -0
-0 -0 -0 -0 -30 -34 -42 -0 -0 -0 -0 -0 -0 -0 -0 -0 -0 -0 -0 -0 -0 -0 -0 -0 -157 -0 -0 -108 -81 -1 -0 -0 -0 -0 -0 -0 -0 -0 -0 -0 -0 -0 -0 -0 -0 -0 -0 -0 -0
-0 -0 -0 -0 -0 -0 -72 -0 -0 -0 -0 -0 -0 -0 -0 -0 -0 -0 -0 -0 -0 -0 -3 -0 -0 -0 -0 -0 -0 -0 -0 -0 -0 -0 -0 -0 -0 -0 -0 -0 -0 -0 -0 -0 -0 -0 -0 -0 -0
-0 -0 -0 -0 -0 -0 -0 -0 -0 -0 -0 -0 -0 -0 -0 -0 -0 -0 -0 -0 -0 -0 -0 -1 -1 -0 -0 -0 -0 -0 -0 -0 -0 -0 -0 -0 -0 -0 -0 -0 -0 -0 -0 -0 -0 -0 -0 -0 -0
-0 -0 -0 -0 -0 -0 -125 -0 -0 -0 -0 -0 -0 -0 -0 -0 -0 -0 -0 -0 -0 -0 -0 -1 -0 -0 -0 -0 -0 -0 -0 -0 -0 -0 -0 -0 -0 -0 -0 -0 -0 -0 -0 -0 -0 -0 -0 -0 -0
-0 -0 -0 -0 -0 -0 -0 -0 -0 -0 -0 -0 -0 -0 -0 -0 -0 -0 -0 -0 -0 -0 -0 -0 -0 -0 -0 -0 -0 -0 -0 -0 -0 -0 -0 -0 -0 -0 -0 -0 -0 -0 -0 -0 -0 -0 -0 -0 -0
-0 -0 -0 -0 -0 -0 -0 -0 -0 -0 -0 -0 -0 -0 -0 -0 -0 -0 -0 -0 -0 -0 -0 -0 -0 -0 -0 -0 -0 -0 -0 -0 -0 -0 -0 -0 -0 -0 -0 -0 -0 -0 -0 -0 -0 -0 -0 -0 -0
-0 -0 -0 -0 -0 -0 -0 -0 -0 -0 -0 -0 -0 -0 -0 -0 -0 -0 -0 -0 -0 -0 -0 -0 -0 -0 -0 -0 -0 -0 -0 -0 -0 -0 -0 -0 -0 -0 -0 -0 -0 -0 -0 -0 -0 -0 -0 -0 -0
-0 -0 -0 -0 -0 -0 -0 -0 -0 -0 -0 -0 -0 -0 -0 -0 -0 -0 -0 -0 -0 -0 -0 -0 -0 -0 -0 -0 -0 -0 -0 -0 -0 -0 -0 -0 -0 -0 -0 -0 -0 -0 -0 -0 -0 -0 -0 -0 -0
-26 -0 -0 -0 -0 -0 -0 -0 -0 -0 -0 -0 -0 -0 -0 -0 -0 -0 -0 -0 -0 -0 -0 -0 -0 -0 -0 -0 -0 -0 -0 -0 -0 -0 -0 -0 -0 -0 -0 -0 -0 -0 -0 -0 -0 -0 -0 -0 -0
-0 -0 -0 -0 -0 -0 -0 -0 -0 -0 -0 -0 -0 -0 -0 -0 -0 -0 -0 -0 -0 -0 -0 -0 -0 -0 -0 -0 -0 -0 -0 -0 -0 -0 -0 -0 -0 -0 -0 -0 -0 -0 -0 -0 -0 -0 -0 -0 -0
-28 -0 -0 -0 -0 -0 -0 -0 -0 -0 -0 -0 -0 -0 -0 -0 -0 -0 -0 -0 -0 -0 -0 -0 -0 -0 -0 -0 -0 -0 -0 -0 -0 -0 -0 -0 -0 -0 -0 -0 -0 -0 -0 -0 -0 -0 -0 -0 -0
-12 -0 -0 -0 -0 -0 -0 -0 -0 -0 -0 -0 -0 -0 -0 -0 -0 -0 -0 -0 -0 -0 -0 -0 -0 -0 -0 -0 -0 -0 -0 -0 -0 -0 -0 -0 -0 -0 -0 -0 -0 -0 -0 -0 -35 -55 -64 -55 -45
-7 -0 -0 -0 -0 -0 -0 -0 -0 -0 -0 -0 -0 -0 -0 -240 -18 -0 -0 -0 -0 -0 -0 -0 -0 -0 -0 -0 -0 -0 -0 -0 -0 -0 -0 -0 -0 -0 -0 -0 -0 -8 -64 -58 -54 -51 -48 -40 -36
-1 -0 -0 -0 -0 -0 -0 -0 -0 -0 -0 -0 -0 -0 -0 -222 -174 -176 -109 -0 -176 -0 -0 -0 -0 -0 -0 -0 -0 -0 -0 -0 -0 -0 -0 -0 -0 -0 -0 -0 -0 -0 -25 -27 -34 -32 -33 -0 -0
-0 -0 -0 -0 -0 -0 -0 -0 -0 -0 -87 -0 -0 -0 -0 -56 -170 -129 -0 -0 -0 -0 -0 -0 -0 -0 -0 -0 -0 -0 -0 -0 -0 -0 -0 -0 -0 -0 -0 -0 -0 -0 -0 -0 -0 -0 -0 -0 -0
-1 -0 -0 -0 -0 -0 -0 -0 -0 -0 -0 -0 -231 -0 -141 -0 -0 -0 -0 -0 -0 -0 -0 -0 -0 -0 -0 -0 -0 -0 -0 -0 -0 -0 -0 -0 -0 -0 -0 -0 -0 -0 -0 -0 -0 -0 -0 -0 -0
-1 -1 -0 -0 -0 -0 -0 -0 -0 -0 -0 -0 -0 -208 -212 -0 -0 -0 -0 -0 -0 -0 -0 -0 -0 -0 -0 -0 -0 -0 -0 -0 -0 -0 -0 -0 -0 -0 -0 -0 -0 -0 -0 -0 -0 -0 -0 -0 -1
-1 -1 -4 -3 -0 -0 -0 -0 -0 -0 -0 -0 -0 -0 -59 -0 -0 -0 -0 -0 -0 -0 -0 -0 -0 -0 -0 -0 -0 -0 -0 -0 -0 -0 -0 -0 -0 -0 -0 -0 -0 -0 -0 -0 -0 -0 -0 -0 -0
-0 -1 -0 -2 -0 -0 -0 -0 -0 -0 -0 -0 -0 -0 -0 -0 -0 -0 -0 -0 -0 -0 -0 -0 -0 -0 -0 -0 -0 -0 -0 -0 -0 -0 -0 -0 -0 -0 -0 -0 -0 -0 -0 -0 -0 -0 -0 -0 -0
-1 -33 -16 -3 -1 -0 -0 -0 -0 -0 -0 -0 -0 -0 -0 -0 -0 -0 -0 -0 -0 -0 -0 -0 -0 -0 -0 -0 -0 -0 -0 -0 -0 -0 -0 -0 -0 -0 -0 -0 -0 -0 -0 -0 -0 -0 -0 -0 -0
-0 -0 -7 -4 -0 -0 -0 -0 -0 -0 -0 -0 -0 -0 -0 -0 -0 -0 -0 -0 -0 -0 -0 -0 -0 -0 -0 -0 -0 -0 -0 -0 -0 -0 -0 -0 -0 -0 -0 -0 -0 -0 -0 -0 -0 -0 -0 -0 -0
-4 -27 -1 -0 -0 -0 -0 -0 -0 -0 -0 -0 -0 -0 -0 -0 -0 -0 -0 -0 -0 -0 -0 -0 -0 -0 -0 -0 -0 -0 -0 -0 -0 -0 -0 -0 -0 -0 -0 -0 -0 -0 -0 -0 -0 -0 -0 -0 -0
-5 -9 -4 -0 -0 -0 -0 -0 -0 -0 -0 -0 -0 -0 -0 -0 -0 -0 -0 -0 -0 -0 -0 -0 -0 -0 -0 -0 -0 -0 -0 -0 -0 -0 -0 -0 -0 -0 -0 -0 -0 -0 -0 -0 -0 -0 -0 -0 -0
-0 -0 -0 -0 -0 -0 -0 -0 -0 -0 -0 -0 -0 -0 -0 -0 -0 -0 -0 -0 -0 -0 -0 -0 -0 -0 -0 -0 -0 -0 -0 -0 -0 -0 -0 -0 -0 -0 -0 -0 -0 -0 -0 -0 -0 -0 -0 -0 -0
-0 -0 -0 -0 -0 -0 -0 -0 -0 -0 -0 -0 -0 -0 -0 -0 -0 -0 -0 -0 -0 -0 -0 -0 -0 -0 -0 -0 -0 -0 -0 -0 -0 -0 -0 -0 -0 -0 -0 -0 -0 -0 -0 -0 -0 -0 -0 -0 -0
-0 -0 -0 -0 -0 -0 -0 -0 -0 -0 -0 -0 -0 -0 -0 -0 -0 -0 -0 -0 -0 -0 -0 -0 -0 -0 -0 -0 -0 -0 -0 -0 -0 -0 -0 -0 -0 -0 -0 -0 -0 -0 -0 -0 -0 -0 -0 -0 -0
-0 -0 -0 -0 -0 -0 -0 -0 -0 -0 -0 -0 -0 -0 -0 -0 -0 -0 -0 -0 -0 -0 -0 -0 -0 -0 -0 -0 -0 -0 -0 -0 -0 -0 -0 -0 -0 -0 -0 -0 -0 -0 -0 -0 -0 -0 -0 -0 -0
Wind_Speed
11 13 15 15 16 15 17 16 16 16 15 16 16 18 19 13 17 16 14 16 15 21 24 21 20 20 20 20 15 12 9 7 5 3 4 10 19 21 21 21 21 21 21 21 21 21 18 16 16
13 16 16 16 16 17 17 16 17 16 14 7 10 13 15 16 15 16 9 9 18 17 16 20 21 20 19 18 14 12 10 7 5 5 7 9 13 16 20 20 19 19 20 20 20 19 18 17 18
13 15 17 16 16 17 16 17 15 11 11 16 13 13 16 16 17 26 12 9 14 12 11 13 14 17 19 17 14 11 9 7 7 8 9 11 14 16 18 19 18 18 19 20 20 19 18 18 19
16 16 17 19 20 19 17 15 13 7 14 13 12 10 15 16 25 22 15 16 13 11 10 11 11 14 13 13 12 10 8 8 9 10 11 12 14 16 18 19 19 19 19 19 20 19 19 20 20
16 16 21 20 20 18 18 17 9 9 14 13 15 13 12 16 16 15 22 21 17 10 9 10 10 10 10 9 9 10 10 10 10 10 11 12 14 16 17 18 19 19 19 20 21 20 21 21 22
19 17 22 22 21 18 18 17 14 13 14 13 12 10 11 18 15 16 20 22 23 21 12 10 9 8 8 9 10 11 11 11 10 11 12 14 15 16 17 18 18 19 20 21 22 22 23 23 24
20 21 23 22 20 17 17 12 14 13 13 16 10 10 14 16 19 7 15 17 19 21 22 13 8 9 9 9 10 11 11 12 12 13 13 14 15 16 17 18 19 20 21 22 22 23 24 24 25
21 21 24 21 21 17 15 14 16 14 14 11 14 12 11 18 4 2 3 7 10 13 17 19 18 17 16 13 12 11 11 12 13 13 14 15 16 17 18 19 20 22 22 24 25 25 26 27 28
20 22 27 21 20 18 15 16 15 15 10 13 14 12 13 4 5 3 3 1 3 8 14 15 16 15 13 10 10 10 10 11 12 14 14 15 17 18 19 20 20 20 20 21 23 24 25 26 27
25 26 26 19 17 19 17 18 15 15 12 14 14 13 3 6 9 10 10 10 10 12 13 11 11 9 7 7 8 9 11 11 12 14 15 15 16 18 19 21 21 22 22 23 25 25 26 26 25
23 24 22 20 19 19 19 17 17 16 17 16 14 6 2 7 7 6 5 8 15 12 10 14 13 12 11 9 9 10 11 12 13 13 14 14 15 17 18 19 21 21 21 22 24 25 25 25 25
28 30 26 25 21 21 20 20 19 20 19 17 12 2 3 9 10 10 11 12 18 17 19 19 17 15 14 13 12 11 11 12 12 13 15 16 16 17 19 20 21 21 22 23 24 24 25 26 27
34 33 29 31 26 26 24 23 22 23 22 16 4 2 1 5 5 5 3 3 10 15 16 18 15 15 13 14 12 12 13 12 13 14 15 15 17 19 21 21 23 24 25 24 26 26 27 28 29
32 37 34 32 32 27 27 25 19 20 16 12 5 4 3 5 5 5 3 3 7 10 15 14 14 12 11 12 11 11 11 13 14 15 16 16 16 19 21 24 25 25 26 27 27 28 28 28 28
29 30 31 32 28 27 23 27 23 19 14 11 9 6 5 8 9 6 3 3 5 3 6 10 9 8 8 9 9 10 12 14 15 17 20 21 21 23 24 25 27 28 29 30 31 31 31 31 29
32 32 36 30 29 26 23 29 21 19 16 14 11 9 7 8 7 11 10 4 1 3 4 4 4 5 6 7 10 13 15 17 19 21 23 24 25 26 26 28 29 29 29 30 31 32 33 33 33
35 37 39 33 26 26 25 27 24 21 20 17 13 10 9 9 12 13 15 11 5 4 5 5 6 7 9 10 12 14 16 19 21 22 24 26 26 27 27 28 29 28 29 30 31 31 32 34 35
36 42 36 35 31 30 30 31 25 22 23 21 17 13 10 10 12 12 13 15 12 11 10 10 10 10 11 11 13 15 17 18 20 22 24 25 26 27 27 28 29 29 30 31 32 32 32 33 34
27 28 40 34 30 31 35 35 31 25 24 23 21 16 13 11 13 12 12 13 11 12 10 9 10 12 11 13 14 15 17 18 21 23 25 26 26 27 27 27 28 29 30 31 32 31 33 32 36
36 37 32 30 29 29 31 38 33 28 28 26 22 20 17 14 13 13 12 13 13 12 12 12 12 13 13 13 14 15 15 17 20 23 25 26 27 27 27 28 28 29 30 31 32 33 33 31 33
34 36 32 32 27 29 29 39 37 31 29 26 24 23 19 16 14 12 12 11 11 11 10 11 12 13 14 13 13 14 15 18 22 24 25 26 26 27 27 27 28 29 29 30 31 32 33 34 32
37 33 31 29 28 40 30 42 37 34 32 29 26 24 22 18 16 14 11 11 10 9 10 10 11 12 14 15 15 16 18 19 20 21 21 24 26 27 28 28 28 29 30 31 31 32 33 33 35
34 23 28 29 30 28 36 40 39 30 34 32 28 25 22 17 15 13 11 10 9 9 9 9 11 12 13 14 15 15 16 17 18 20 21 23 25 27 28 29 29 30 30 31 32 33 34 33 34
20 21 23 24 26 35 34 41 42 38 34 31 28 25 21 18 14 12 11 9 10 10 9 8 10 12 12 13 14 14 16 17 18 21 22 24 25 27 29 30 30 30 32 33 34 34 34 35 35
28 26 29 31 31 34 27 32 38 30 32 30 25 22 20 19 16 13 11 11 8 7 11 10 8 11 12 13 15 16 17 17 18 21 23 24 26 28 30 31 32 32 33 33 35 35 35 35 36
31 32 32 36 33 31 24 33 31 30 24 20 20 19 18 18 16 14 10 10 10 8 10 13 10 10 12 14 15 17 17 19 20 22 23 24 26 28 29 31 32 33 34 35 34 34 34 35 35
31 33 26 25 26 29 29 30 27 21 20 16 13 9 12 14 13 11 9 9 11 10 11 13 12 13 13 14 14 16 18 20 21 22 24 25 27 28 30 32 33 34 34 35 35 35 36 35 36
26 21 32 30 34 35 32 32 31 25 21 19 17 12 9 10 10 11 11 11 12 8 7 9 10 11 12 13 16 18 19 21 22 24 26 27 28 30 31 32 33 33 34 34 35 35 36 36 37
25 30 24 24 27 31 32 32 23 21 17 16 13 11 10 8 7 9 9 9 10 10 8 8 9 10 12 14 16 19 21 23 24 25 26 28 29 30 31 32 33 33 34 35 35 36 37 39 39
21 21 20 28 29 25 24 25 18 18 15 10 10 8 8 9 10 10 8 8 8 8 8 8 9 11 14 16 19 20 22 23 24 25 27 28 29 30 31 31 32 33 34 35 37 38 38 39 39
Wind_Direction
286 267 262 259 252 259 251 255 251 241 237 229 223 203 187 221 185 191 225 201 82 98 108 98 93 93 93 91 69 49 28 22 15 339 324 17 49 56 46 46 38 36 31 30 27 21 2 345 342
280 267 262 258 253 251 252 257 253 249 248 279 252 234 220 209 204 168 215 236 95 91 85 92 93 89 90 88 69 54 35 6 324 302 311 331 358 17 42 34 29 32 22 25 19 2 350 340 338
284 276 255 254 254 251 256 261 262 269 257 238 250 243 223 213 200 135 233 80 86 82 73 77 77 83 89 83 70 54 25 347 307 301 316 335 355 12 28 27 19 24 17 23 13 357 344 334 331
274 266 260 249 246 252 257 268 266 271 251 260 261 280 236 228 170 184 89 94 87 82 76 78 72 77 72 67 61 43 6 330 310 309 324 344 4 22 33 33 30 17 6 23 3 345 332 324 318
272 265 247 246 247 256 255 264 279 267 257 268 257 269 265 221 220 87 106 106 98 86 82 78 72 65 60 52 45 37 23 360 331 330 341 351 5 15 16 17 14 8 2 354 348 339 327 321 317
257 258 245 241 244 256 260 265 262 262 263 275 285 287 265 222 223 99 107 110 112 107 91 81 73 56 49 49 50 49 31 10 355 352 358 3 8 12 13 11 359 354 355 348 348 341 330 324 323
255 248 244 244 244 255 264 268 253 263 269 264 287 293 254 234 217 92 99 100 102 110 113 88 71 65 62 53 51 46 31 17 12 9 9 9 8 5 357 346 342 350 353 347 341 337 332 327 327
257 250 243 247 243 251 265 259 257 266 273 281 264 287 284 234 220 122 92 84 87 92 105 113 107 104 99 78 67 47 29 25 17 14 10 5 0 352 342 337 347 351 351 345 339 337 335 332 330
262 247 237 245 246 250 267 260 266 269 286 275 267 275 264 107 132 132 111 289 67 84 103 107 107 102 91 65 51 39 24 27 10 2 358 352 346 342 344 350 357 4 5 1 353 347 345 342 340
245 241 238 250 256 254 264 264 263 266 274 274 275 271 351 113 124 118 114 107 105 109 108 100 95 82 59 32 8 356 359 20 23 14 12 11 5 359 351 349 350 352 353 349 345 346 344 345 350
247 245 245 248 257 261 260 267 261 263 263 270 277 297 59 121 134 131 119 110 120 109 99 113 105 97 86 57 34 22 17 23 30 36 31 29 21 14 9 4 0 2 1 357 351 349 349 350 351
245 243 248 245 257 261 260 265 265 257 262 277 286 18 100 128 133 128 121 117 126 121 124 124 117 108 103 93 80 54 47 46 46 30 15 9 10 8 1 358 359 358 356 352 351 350 347 345 344
241 242 247 247 254 257 259 261 262 258 256 278 317 315 156 150 153 227 223 113 110 119 118 122 112 110 97 106 86 76 81 73 45 24 19 16 10 2 356 354 349 347 348 349 346 345 343 341 341
238 240 244 248 250 257 255 259 266 264 264 274 296 283 242 214 200 222 214 135 114 110 120 114 115 105 89 96 79 59 46 26 19 13 10 11 5 356 351 346 344 344 343 342 341 340 340 339 339
238 241 242 244 250 252 260 257 258 266 263 269 275 272 250 241 235 220 162 149 111 91 94 107 97 80 73 67 43 33 9 359 1 352 347 345 344 341 339 338 338 338 337 335 334 333 334 334 335
238 242 239 245 247 252 255 250 260 261 256 259 263 264 253 245 233 245 248 252 279 303 80 71 51 40 33 7 347 345 340 339 337 337 336 334 334 335 335 334 334 335 336 336 335 334 332 333 334
234 236 237 244 249 250 250 251 258 258 254 256 257 256 251 247 249 250 251 259 277 296 303 316 323 327 331 338 335 335 336 334 334 336 336 336 337 337 337 337 337 338 340 340 338 338 337 333 333
235 234 241 242 244 247 248 248 256 258 253 253 254 253 252 247 251 255 260 263 274 283 291 299 306 311 320 331 335 335 336 339 341 341 341 342 342 342 343 343 341 341 340 340 339 337 338 337 338
244 241 241 245 248 248 248 248 252 257 254 253 252 252 255 252 260 263 263 269 276 285 293 305 310 313 320 323 328 331 333 340 342 342 342 343 344 345 346 346 345 344 343 343 342 341 340 340 341
241 243 243 249 246 248 249 247 251 253 255 252 251 250 253 257 257 262 266 272 278 285 293 299 307 314 320 325 328 333 340 345 344 344 345 346 347 348 349 349 348 348 346 345 344 344 341 341 344
241 241 243 249 248 249 251 250 248 252 255 256 253 252 256 258 256 260 265 272 281 288 297 305 312 319 324 329 338 342 347 340 337 340 344 347 350 351 352 352 350 349 349 348 347 346 344 340 342
240 243 249 249 247 244 248 249 250 251 252 253 253 251 254 258 260 262 263 271 281 293 303 314 321 325 327 330 331 329 328 332 340 347 352 352 353 353 352 351 351 351 350 349 348 348 344 343 340
244 247 248 253 251 250 247 251 251 252 250 250 253 253 254 257 258 260 266 272 285 296 305 325 324 333 336 339 343 345 347 352 353 353 352 353 352 352 352 352 352 352 352 351 350 347 346 345 342
239 245 254 257 254 251 248 247 253 251 252 252 255 255 252 252 255 263 270 276 283 296 310 326 327 330 339 350 353 353 349 352 351 347 350 350 351 351 351 352 352 353 351 349 347 347 345 343 342
239 236 245 247 246 252 258 254 256 257 255 253 252 254 252 249 250 253 260 276 279 302 310 310 322 332 341 347 347 352 348 352 352 350 350 347 346 347 346 349 347 348 349 348 346 345 344 343 341
234 234 240 242 246 252 260 259 266 263 260 256 254 255 255 248 246 250 258 273 287 299 305 303 319 325 334 343 345 350 351 349 347 347 348 347 345 345 348 347 348 347 347 346 346 346 345 344 343
234 235 246 253 258 257 260 267 275 270 256 247 237 242 252 248 236 241 255 278 292 297 292 293 315 323 331 342 350 349 350 349 349 350 346 345 345 346 346 346 346 346 347 347 347 347 346 345 344
245 241 244 250 249 255 261 264 267 261 252 249 242 238 233 239 246 249 262 285 285 296 300 316 322 325 340 340 345 347 346 346 346 345 346 347 347 346 346 347 348 348 349 349 349 347 346 346 344
236 240 250 252 258 257 259 264 270 264 255 245 241 236 224 218 250 266 274 270 272 287 297 306 317 332 333 342 343 342 343 342 346 348 348 348 348 348 348 348 348 348 349 349 348 347 346 344 343
246 235 245 247 250 262 267 268 279 272 261 242 223 219 231 246 266 260 256 260 270 285 302 314 329 336 336 339 341 345 347 349 350 351 349 348 348 349 349 349 348 348 348 348 347 345 345 345 344